Location: Milton Keynes
(52.0316°N, 0.7531°W)
Time: 10:25:42
(UTC+00:00)

GENESIS II - Pass Details

Date: 24 January 2019
Orbit: 487 x 544 km, 64.5° (Epoch: 21 February)

Event Time Altitude Azimuth Distance (km) Brightness Sun altitude
Rises 06:26:55 0° 164° (SSE) 2,610 8.2 -13.3°
Reaches altitude 10° 06:30:30 10° 129° (SE) 1,748 8.0 -12.8°
Maximum altitude 06:31:41 11° 111° (ESE) 1,682 8.2 -12.6°
Drops below altitude 10° 06:32:53 10° 93° (E) 1,763 8.3 -12.4°
Sets 06:36:33 0° 58° (ENE) 2,676 8.5 -11.9°
